Orbital Elements at Epoch 2459200.5 (2020-Dec-17.0) TDB
Reference: JPL 16 (heliocentric ecliptic J2000)
Element | Value | Uncertainty (1-sigma) | Units |
e | .17830171766519 | 4.6917e-08 | |
a | 2.625088301032664 | 1.0417e-08 | au |
q | 2.157030547935745 | 1.2646e-07 | au |
i | 13.03889987260684 | 7.3828e-06 | deg |
node | 349.832452130664 | 1.5374e-05 | deg |
peri | 59.9552720017896 | 2.5359e-05 | deg |
M | 338.7620560397622 | 1.8379e-05 | deg |
tp | 2459292.148269992185 (2021-Mar-18.64826999) | 7.9448e-05 | TDB |
period | 1553.510888763893 4.25 | 9.2466e-06 2.532e-08 | d yr |
n | .2317331681443488 | 1.3793e-09 | deg/d |
Q | 3.093146054129584 | 1.2274e-08 | au |
|
| | Orbit Determination Parameters
Additional Information
|